Weather History for Burnet, TX

Change the Weather History Date:

Wednesday, May 16, 2012

  Actual Average Record
Temperature  
Mean Temperature 70 °F -  
Max Temperature 86 °F 82 °F 97 °F (2003)
Min Temperature 57 °F 62 °F 53 °F (2006)
Cooling Degree Days 6    
Growing Degree Days 20 (Base 50)    
Moisture  
Dew Point 53 °F    
Average Humidity 57    
Maximum Humidity 90    
Minimum Humidity 27    
Precipitation  
Precipitation 0.00 in - - ()
Sea Level Pressure  
Sea Level Pressure 30.05 in    
Wind  
Wind Speed 2 mph (NE)    
Max Wind Speed 8 mph    
Max Gust Speed -    
Visibility 10 miles    
Events      
Averages and records for this station are not official NWS values.
T = Trace of Precipitation, MM = Missing Value Source: NWS Daily Summary

Daily Weather History Graph

Daily Weather History Graph

Search for Another Location

Airport:

Trip Planner

Search our weather history database for the weather conditions in past years. The results will help you decide how hot, cold, wet, or windy it might be!

Date:

Astronomy

May. 16, 2012 Rise Set
Actual Time 6:37 AM CDT 8:21 PM CDT
Civil Twilight 6:10 AM CDT 8:48 PM CDT
Nautical Twilight 5:38 AM CDT 9:20 PM CDT
Astronomical Twilight 5:05 AM CDT 9:54 PM CDT
Moon 3:53 AM CDT (5/16) 4:50 PM CDT (5/16)
Length of Visible Light 14h 37m
Length of Day
13h 44m
Waning Crescent, 16% of the Moon is Illuminated
May 16
Waning Crescent
May 20
New
May 28
First Quarter
Jun 4
Full
Jun 11
Last Quarter

Hourly Weather History & Observations

Time (CDT) Temp. Dew Point Humidity Pressure Visibility Wind Dir Wind Speed Gust Speed Precip Events Conditions
12:53 AM 60.1 °F 55.9 °F 86% 30.10 in 9.0 mi Calm Calm - N/A   Clear
1:53 AM 59.0 °F 55.0 °F 87% 30.09 in 10.0 mi Calm Calm - N/A   Clear
2:53 AM 57.9 °F 55.0 °F 90% 30.07 in 9.0 mi Calm Calm - N/A   Clear
3:53 AM 57.0 °F 54.0 °F 89% 30.06 in 9.0 mi Calm Calm - N/A   Clear
4:53 AM 57.0 °F 54.0 °F 89% 30.06 in 9.0 mi Calm Calm - N/A   Clear
5:53 AM 57.0 °F 54.0 °F 89% 30.06 in 8.0 mi Calm Calm - N/A   Clear
6:53 AM 57.9 °F 55.0 °F 90% 30.07 in 8.0 mi Calm Calm - N/A   Clear
7:53 AM 64.0 °F 57.9 °F 80% 30.09 in 9.0 mi Calm Calm - N/A   Clear
8:53 AM 69.1 °F 57.0 °F 65% 30.09 in 10.0 mi WNW 6.9 mph - N/A   Clear
9:53 AM 73.9 °F 55.0 °F 52% 30.10 in 10.0 mi WNW 8.1 mph - N/A   Clear
10:53 AM 75.9 °F 54.0 °F 46% 30.10 in 10.0 mi WNW 8.1 mph - N/A   Clear
11:53 AM 80.1 °F 52.0 °F 38% 30.08 in 10.0 mi ENE 6.9 mph - N/A   Clear
12:53 PM 81.0 °F 50.0 °F 34% 30.07 in 10.0 mi NNW 6.9 mph - N/A   Clear
1:53 PM 82.0 °F 50.0 °F 33% 30.05 in 10.0 mi ENE 3.5 mph - N/A   Scattered Clouds
2:53 PM 84.0 °F 48.9 °F 29% 30.03 in 10.0 mi North - - N/A   Clear
3:53 PM 82.9 °F 50.0 °F 32% 30.01 in 10.0 mi Variable 4.6 mph - N/A   Partly Cloudy
4:53 PM 84.0 °F 48.9 °F 29% 29.99 in 10.0 mi Calm Calm - N/A   Clear
5:53 PM 84.9 °F 46.9 °F 27% 29.98 in 10.0 mi Calm Calm - N/A   Clear
6:53 PM 82.9 °F 46.9 °F 28% 29.97 in 10.0 mi Variable 3.5 mph - N/A   Clear
7:53 PM 81.0 °F 48.9 °F 33% 29.98 in 10.0 mi East 3.5 mph - N/A   Clear
8:53 PM 73.9 °F 55.0 °F 52% 30.00 in 10.0 mi East 4.6 mph - N/A   Clear
9:53 PM 73.0 °F 57.0 °F 57% 30.01 in 10.0 mi SE 4.6 mph - N/A   Clear
10:53 PM 71.1 °F 57.0 °F 61% 30.03 in 10.0 mi Calm Calm - N/A   Clear
11:53 PM 70.0 °F 57.0 °F 63% 30.04 in 10.0 mi South 3.5 mph - N/A   Clear